www.pogodaiklimat.ru

Погода и климат >> Архив погоды >> Россия >> Приморский край >> Мельничное


ПОГОДА в Мельничном

  • Прогноз погоды в Мельничном
  • Монитор погоды в Мельничном

АРХИВ ПОГОДЫ в Мельничном

Время (UTC), дата Ветер
(напр.,м/с)
 
Видим.   Явления Облачность Т
(С)
Тd
(С)
f
(%)
Тe
(С)
Тes
(С)
Комфортность P
(гПа)
Po
(гПа)
Тmin
(С)
Tmax
(С)
R
(мм)
R24
(мм)
S
(см)
00 16.04 ЮВ 2 50 км 1 балл +7.2 -5.5 40 +6 +14 1010.6 970.7
03 16.04 В 3 50 км ясно +18.5 -6.3 18 +19 +31 опасность
простуды
1004.8 966.7
06 16.04 З 2 20 км 7 баллов +21.4 -8.2 13 +20 +23 1001.7 964.0
09 16.04 З 3 20 км 2 балла +19.3 -5.6 18 +19 +20 1001.9 964.0 +21.9
12 16.04 штиль 0 20 км 2 балла +3.7 -0.9 72 +3 +3 1006.9 966.7
15 16.04 В 1 20 км ясно +0.5 -2.5 80 -1 -1 1008.7 968.0
18 16.04 штиль 0 20 км 1 балл -1.0 -3.7 82 -2 -2 1008.9 968.0
21 16.04 штиль 0 20 км 1 балл -1.2 -3.6 84 -2 -2 1010.3 969.3 -2.5
00 17.04 В 1 20 км 7 баллов +11.5 -3.1 36 +12 +15 1008.5 969.3
03 17.04 С 2 20 км 2 балла +23.1 -5.9 14 +21 +33 комфорт 1002.8 965.3
06 17.04 ЮЗ 2 20 км 2 балла +25.2 -11.4 8 +22 +29 комфорт 999.8 962.7
09 17.04 Ю 3 20 км 10 баллов +21.7 -10.1 11 +20 +20 1000.3 962.7 +25.6
12 17.04 В 1 20 км 10 баллов +11.2 -8.6 24 +12 +12 1003.0 964.0
15 17.04 В 2 20 км 10 баллов +5.5 -5.8 44 +4 +4 1002.5 962.7
18 17.04 В 3 20 км 10 баллов +2.2 -6.1 54 -1 -1 1001.5 961.3
21 17.04 ЮВ 1 20 км 10 баллов +0.9 -6.0 60 -0 -0 1001.7 961.3 +0.3
00 18.04 В 2 20 км 10 баллов +4.5 -5.8 47 +3 +3 1001.2 961.3
03 18.04 ЮВ 1 20 км в посл. час ливневой дождь 10 баллов +13.2 +1.2 44 +14 +14 998.5 960.0
06 18.04 СЗ 3 10 км слаб. ливневой дождь 10 баллов +5.4 +3.4 87 +2 +2 1002.4 962.7
09 18.04 З 4 10 км осадки на расстоянии 10 баллов +2.8 -2.5 68 -2 -2 1007.0 966.7 +14.4 3
12 18.04 СЗ 5 2000 м слаб. ливневой снег 10 баллов +0.2 -3.5 76 -6 -6 1010.1 969.3
15 18.04 СЗ 2 20 км 4 балла -1.0 -6.5 66 -4 -4 1010.3 969.3
21 18.04 З 5 20 км ясно -0.6 -17.3 27 -6 -5 1010.3 969.3 -2.7 0.5
00 19.04 З 6 50 км ясно +1.6 -16.8 24 -3 0 1010.0 969.3
03 19.04 СЗ 6 50 км 1 балл +4.1 -15.7 22 -0 +6 1009.6 969.3
06 19.04 СЗ 7 50 км 4 балла +5.1 -14.9 22 +1 +2 1009.4 969.3
09 19.04 СЗ 5 50 км 2 балла +4.0 -14.7 24 0 0 1011.1 970.7 +5.4
12 19.04 СЗ 2 50 км ясно +1.9 -13.0 32 -0 -0 1012.7 972.0
15 19.04 З 2 50 км ясно 0.0 -9.7 48 -3 -3 1013.0 972.0
18 19.04 З 2 50 км 7 баллов -0.7 -9.1 53 -4 -4 1014.5 973.3
21 19.04 В 1 50 км ясно -2.2 -8.9 60 -4 -3 1014.7 973.3 -3.5
00 20.04 З 3 50 км ясно +3.5 -10.5 35 +1 +8 1013.8 973.3
03 20.04 З 3 50 км 1 балл +8.2 -10.2 26 +6 +18 опасность
простуды
1011.8 972.0
06 20.04 З 2 50 км 10 баллов +11.8 -10.4 20 +11 +11 1008.5 969.3
09 20.04 СЗ 1 50 км 7 баллов +10.1 -13.1 18 +11 +11 1007.4 968.0 +11.9
12 20.04 В 2 50 км 4 балла +3.4 -9.6 38 +1 +1 1011.1 970.7
15 20.04 В 2 50 км 10 баллов +0.7 -7.8 53 -2 -2 1011.5 970.7
18 20.04 СВ 1 50 км 10 баллов +0.6 -9.1 48 -1 -1 1011.5 970.7
21 20.04 штиль 0 50 км 6 баллов +0.3 -7.4 56 -0 0 1011.6 970.7 -0.4
00 21.04 В 2 50 км 10 баллов +6.0 -9.4 32 +5 +5 1010.7 970.7
03 21.04 СЗ 5 20 км 10 баллов +12.1 -14.6 14 +10 +10 1009.9 970.7
06 21.04 СЗ 5 20 км 6 баллов +12.8 -15.9 12 +11 +13 1008.3 969.3
09 21.04 СЗ 3 20 км ясно +11.4 -15.2 14 +10 +11 1008.5 969.3 +13.1
12 21.04 штиль 0 20 км ясно -0.5 -14.8 33 -1 -1 1013.1 972.0
15 21.04 штиль 0 20 км ясно -3.9 -7.7 75 -5 -5 1016.4 974.7
18 21.04 штиль 0 20 км ясно -6.3 -8.0 88 -7 -7 1018.1 976.0
21 21.04 штиль 0 20 км ясно -5.8 -7.0 91 -7 -6 1019.4 977.3 -7.9
00 22.04 штиль 0 20 км ясно +6.0 -7.9 36 +6 +19 опасность
простуды
1017.6 977.3
03 22.04 З 5 20 км ясно +12.0 -13.8 15 +10 +19 1016.8 977.3
06 22.04 СЗ 3 20 км 4 балла +14.0 -16.0 11 +14 +18 1015.1 976.0
09 22.04 С 2 20 км 10 баллов +13.4 -16.5 11 +13 +13 1015.2 976.0 +14.2
12 22.04 штиль 0 20 км ясно -0.1 -7.1 59 -1 -1 1018.5 977.3
15 22.04 В 2 20 км ясно -2.3 -8.6 62 -6 -6 1018.9 977.3

 

Местоположение метеостанции Мельничное (Приморский край, Россия): широта 45.45 долгота 135.50 высота над уровнем моря 332 м.

В архиве по умолчанию представлена погода в Мельничном за последнюю неделю. Архивные данные за месяц целиком и за предыдущие месяцы, начиная с января 2011 года, Вы можете получить, выбрав интересующий диапазон дат из раскрывающегося списка и нажав кнопку "Ввод!".


*Определитесь, кто Вы:
робот инопланетянин человек

Внимание! Время в таблицах - всемирное. Для получения местного времени необходимо прибавить поправку, которая равна 10 ч.

Смотрите также архив погоды в соседних городах и на ближайших метеорологических станциях:

Погода в Глубинном (Приморский край, Россия) (71 км)
Погода в Тернее (Приморский край, Россия) (100 км)
Погода в Малиново (Приморский край, Россия) (102 км)
Погода в Красном Яре (Приморский край, Россия) (121 км)
Погода в Рудной Пристани (Приморский край, Россия) (122 км)
Погода в Малой Кеме (Приморский край, Россия) (125 км)
Погода в Богополе (Приморский край, Россия) (134 км)
Погода в Кавалерово (Приморский край, Россия) (139 км)
Погода в Дальнереченске (Приморский край, Россия) (148 км)
Погода в Кировском (Приморский край, Россия) (161 км)

Пояснения к столбцам:

Ветер - указаны скорость ветра в м/с - средняя за 10 мин, порывы в срок и между сроками (в фигурных скобках) и направление, откуда дует ветер: С - северный, СВ - северо-восточный, В - восточный, ЮВ - юго-восточный, Ю - южный, ЮЗ - юго-западный, З - западный, СЗ - северо-западный.
Видимость - горизонтальная дальность видимости в метрах или километрах. При видимости от 1 до 10 км при отсутствии осадков обычно наблюдается дымка, при ухудшении видимости до 1 км и менее - туман. В сухую погоду видимость может ухудшаться дымом, пылью или мглою.
Явления - указаны атмосферные явления, наблюдавшиеся в срок или в последний час перед сроком; фигурными скобками обозначены явления, наблюдавшиеся между сроками (за 1-3 часа до срока); квадратными скобками обозначены град или гололедные отложения с указанием их диаметра в мм.
Облачность - указаны через наклонную черту общая и нижняя облачность в баллах и высота нижней границы облаков в метрах; квадратными скобками обозначены формы облаков: Ci - перистые, Cs - перисто-слоистые, Cc - перисто-кучевые, Ac - высококучевые, As - высокослоистые, Sc - слоисто-кучевые, Ns - слоисто-дождевые, Cu - кучевые, Cb - кучево-дождевые. Подробнее классификацию облаков см. в Атласе облаков (PDF).
T - Температура воздуха - температура, измеренная на высоте 2 м над землей.
Td - Температура точки росы - температура, при понижении до которой содержащийся в воздухе водяной пар достигнет насыщения.
f - Относительная влажность воздуха - влажноcть воздуха, измеренная на высоте 2 м над землей.
Te - Эффективная температура - температура, которую ощущает одетый по сезону человек в тени. Характеристика душности погоды. При расчете учитывается влияние влажности воздуха и скорости ветра на теплоощущения человека.
Tes - Эффективная температура на солнце - температура, которую ощущает человек, с поправкой на солнечный нагрев. Характеристика знойности погоды. Зависит от высоты солнца над горизонтом, облачности и скорости ветра. Ночью, в пасмурную погоду, а также при ветре 12 м/с и более поправка равна нулю.
P - Атмосферное давление - приведенное к уровню моря атмосферное давление.
Po - Атмосферное давление - измеренное на уровне метеостанции атмосферное давление.
Tmin - Минимальная температура - минимум температуры воздуха на высоте 2 м над землей.
Tmax - Максимальная температура - максимум температуры воздуха на высоте 2 м над землей.
R - Количество осадков - Количество выпавших осадков за период времени, мм. При наведении курсора мыши на число - период времени, за который выпало указанное количество осадков.
R24 - Количество осадков - Количество выпавших осадков за 24 часа, мм.
S - Снежный покров - Высота снежного покрова, см. При наведении курсора мыши на число - состояние снежного покрова и степень покрытия местности в баллах.